This demonstration page uses our WeatherBlox Daily Observations layout. Learn more.

Left ArrowRight Arrow

39.51506, -84.39828

Hourly Observations for May 7, 2017

Temp ( °F °C ) Dew Point ( °F °C ) Humidity (%) Winds ( mph kmh ) Pressure ( in mb ) Visibility ( mi km ) Precip ( " mm )
12:15 am 00:15 Clear 49 9.6 29 -1.6 46 46 N N/A 29.85 1011 10 16 N/A
12:35 am 00:35 Clear 47 8.2 28 -2.1 49 49 N N/A 29.85 1011 10 16 N/A
12:55 am 00:55 Clear 43 6.1 29 -1.8 57 57 SSW 3 6 29.85 1011 10 16 N/A
1:15 am 01:15 Clear 43 6.1 29 -1.9 57 57 S 3 6 29.85 1011 10 16 N/A
1:35 am 01:35 Clear 43 5.9 28 -2 57 57 SSW 3 6 29.85 1011 10 16 N/A
1:55 am 01:55 Clear 43 6 28 -2.5 55 55 N N/A 29.85 1011 10 16 N/A
2:15 am 02:15 Clear 43 6 27 -3 53 53 N N/A 29.85 1011 10 16 N/A
2:35 am 02:35 Clear 42 5.6 26 -3.5 52 52 N N/A 29.85 1011 10 16 N/A
2:55 am 02:55 Clear 42 5.6 24 -4.5 49 49 N N/A 29.85 1011 10 16 N/A
3:15 am 03:15 Clear 42 5.5 25 -3.9 51 51 N N/A 29.85 1011 10 16 N/A
3:35 am 03:35 Clear 41 4.9 25 -3.9 53 53 SSW 3 6 29.85 1011 10 16 N/A
3:55 am 03:55 Clear 42 5.5 25 -3.7 52 52 N N/A 29.85 1011 10 16 N/A
4:15 am 04:15 Clear 42 5.4 24 -4.4 50 50 N N/A 29.85 1011 10 16 N/A
4:35 am 04:35 Clear 42 5.5 24 -4.6 49 49 NW 7 11 29.85 1011 10 16 N/A
4:55 am 04:55 Clear 42 5.5 23 -5 47 47 NW 7 11 29.88 1012 10 16 N/A
5:15 am 05:15 Clear 42 5.4 24 -4.4 50 50 NW 7 11 29.88 1012 10 16 N/A
5:35 am 05:35 Clear 42 5.4 24 -4.6 49 49 NW 7 11 29.88 1012 10 16 N/A
5:55 am 05:55 Clear 40 4.7 24 -4.6 51 51 WNW 7 11 29.88 1012 10 16 N/A
6:15 am 06:15 Clear 40 4.7 24 -4.5 52 52 NW 7 11 29.91 1013 10 16 N/A
6:35 am 06:35 Sunny 40 4.6 24 -4.2 53 53 WNW 7 11 29.91 1013 10 16 N/A
6:55 am 06:55 Sunny 40 4.2 25 -4 56 56 WNW 6 9 29.91 1013 10 16 N/A
7:15 am 07:15 Sunny 40 4.7 25 -3.8 54 54 WNW 7 11 29.91 1013 10 16 N/A
7:35 am 07:35 Sunny 42 5.5 25 -3.7 52 52 WNW 7 11 29.94 1014 10 16 N/A
7:55 am 07:55 Sunny 43 6 26 -3.5 51 51 WNW 7 11 29.94 1014 10 16 N/A
8:15 am 08:15 Sunny 44 6.8 26 -3.4 49 49 WNW 7 11 29.97 1015 10 16 N/A
8:35 am 08:35 Sunny 47 8.2 27 -3 45 45 WNW 6 9 29.97 1015 10 16 N/A
8:55 am 08:55 Sunny 49 9.6 29 -1.8 45 45 WNW 8 13 29.97 1015 10 16 N/A
9:15 am 09:15 Sunny 49 9.6 28 -2.5 43 43 NW 7 11 29.97 1015 10 16 N/A
9:35 am 09:35 Sunny 49 9.6 26 -3.3 40 40 NW 8 13 29.97 1015 10 16 N/A
9:55 am 09:55 Sunny 49 9.6 26 -3.1 41 41 WNW 7 11 29.97 1015 10 16 N/A
10:15 am 10:15 Sunny 51 10.3 26 -3.3 39 39 WNW 10 17 29.97 1015 10 16 N/A
10:35 am 10:35 Sunny 52 11 27 -3 38 38 W 12 19 30.00 1016 10 16 N/A
10:55 am 10:55 Sunny 55 12.5 28 -2.2 36 36 W 6 9 29.97 1015 10 16 N/A
11:15 am 11:15 Sunny 55 12.5 26 -3.2 34 34 W 10 17 29.97 1015 10 16 N/A
11:35 am 11:35 Sunny 55 12.6 25 -4.1 31 31 WNW 9 15 30.00 1016 10 16 N/A
11:55 am 11:55 Sunny 57 13.7 24 -4.5 28 28 W 16 26 30.00 1016 10 16 N/A
12:15 pm 12:15 Sunny 57 13.8 22 -5.3 26 26 W 12 19 30.00 1016 10 16 N/A
12:35 pm 12:35 Sunny 57 13.8 22 -5.5 26 26 NW 12 19 29.97 1015 10 16 N/A
12:55 pm 12:55 Sunny 57 13.8 22 -5.3 26 26 WNW 13 20 29.97 1015 10 16 N/A
1:15 pm 13:15 Sunny 59 15.1 27 -2.9 29 29 WNW 10 17 29.94 1014 10 16 N/A
1:35 pm 13:35 Sunny 60 15.3 25 -3.9 27 27 WNW 13 20 29.94 1014 10 16 N/A
1:55 pm 13:55 Sunny 60 15.3 24 -4.6 25 25 NW 8 13 29.94 1014 10 16 N/A
2:15 pm 14:15 Sunny 60 15.3 21 -6.1 22 22 WNW 15 24 29.94 1014 10 16 N/A
2:35 pm 14:35 Sunny 60 15.4 26 -3.5 27 27 WNW 10 17 29.94 1014 10 16 N/A
2:55 pm 14:55 Sunny 60 15.5 22 -5.3 24 24 WNW 10 17 29.94 1014 10 16 N/A
3:15 pm 15:15 Sunny 60 15.5 23 -5.2 24 24 WNW 15 24 29.94 1014 10 16 N/A
3:35 pm 15:35 Sunny 61 16 23 -5.1 23 23 WNW 13 20 29.94 1014 10 16 N/A
3:55 pm 15:55 Partly Cloudy 61 16 24 -4.5 24 24 WNW 10 17 29.94 1014 10 16 N/A
4:15 pm 16:15 Partly Cloudy 61 16 22 -5.6 22 22 WNW 15 24 29.94 1014 10 16 N/A
4:35 pm 16:35 Partly Cloudy 61 16.1 24 -4.2 25 25 W 15 24 29.91 1013 10 16 N/A
4:55 pm 16:55 Partly Cloudy 61 15.9 23 -5.1 23 23 W 17 28 29.91 1013 10 16 N/A
5:15 pm 17:15 Partly Cloudy 61 15.9 22 -5.5 23 23 WNW 10 17 29.91 1013 10 16 N/A
5:35 pm 17:35 Partly Cloudy 61 16 24 -4.7 24 24 WNW 15 24 29.94 1014 10 16 N/A
5:55 pm 17:55 Partly Cloudy 60 15.5 22 -5.7 23 23 NW 15 24 29.94 1014 10 16 N/A
6:15 pm 18:15 Partly Cloudy 60 15.3 23 -4.9 25 25 W 10 17 29.94 1014 10 16 N/A
6:35 pm 18:35 Mostly Cloudy 60 15.3 24 -4.4 26 26 W 14 22 29.94 1014 10 16 N/A
6:55 pm 18:55 Partly Cloudy 60 15.3 21 -6.3 22 22 WNW 12 19 29.94 1014 10 16 N/A
7:15 pm 19:15 Sunny 60 15.3 23 -5.2 24 24 WNW 12 19 29.94 1014 10 16 N/A
7:35 pm 19:35 Sunny 59 15.1 21 -6.3 22 22 WNW 10 17 29.94 1014 10 16 N/A
7:55 pm 19:55 Sunny 57 13.8 21 -6 25 25 NW 7 11 29.97 1015 10 16 N/A
8:15 pm 20:15 Sunny 57 13.8 17 -8.4 21 21 NW 10 17 30.00 1016 10 16 N/A
8:35 pm 20:35 Sunny 55 12.5 18 -7.9 24 24 NW 7 11 30.00 1016 10 16 N/A
8:55 pm 20:55 Clear 55 12.5 18 -7.8 24 24 NW 8 13 30.00 1016 10 16 N/A
9:15 pm 21:15 Clear 55 12.5 19 -7.2 25 25 NNW 7 11 30.00 1016 10 16 N/A
9:35 pm 21:35 Clear 51 10.8 20 -6.9 28 28 NNW 5 7 30.03 1017 10 16 N/A
9:55 pm 21:55 Clear 49 9.6 21 -6.2 33 33 N 3 6 30.03 1017 10 16 N/A
10:15 pm 22:15 Clear 49 9.6 27 -2.7 42 42 N 3 6 30.03 1017 10 16 N/A
10:35 pm 22:35 Clear 44 6.8 27 -3 50 50 NNW 3 6 30.03 1017 10 16 N/A
10:55 pm 22:55 Clear 44 6.8 30 -1.3 57 57 N N/A 30.03 1017 10 16 N/A
11:15 pm 23:15 Clear 42 5.6 31 -0.4 66 66 N N/A 30.03 1017 10 16 N/A
11:35 pm 23:35 Clear 44 6.8 26 -3.4 49 49 N 5 7 30.03 1017 10 16 N/A
11:55 pm 23:55 Clear 44 6.6 25 -4.1 47 47 NNW 3 6 30.03 1017 10 16 N/A

Powered by AerisWeather